Weather History for Ashtabula, OH

Change the Weather History Date:

Thursday, August 14, 2014

  Actual Average (KYNG) Record (KYNG)
Temperature  
Mean Temperature 57 °F 70 °F  
Max Temperature 64 °F 80 °F 95 °F (1936)
Min Temperature 50 °F 59 °F 45 °F (1964)
Degree Days  
Heating Degree Days 8 1  
Month to date heating degree days 9  
Since 1 June heating degree days 91  
Since 1 July heating degree days 22  
Cooling Degree Days 0 5  
Month to date cooling degree days 78  
Year to date cooling degree days 412  
Since 1 June cooling degree days 373  
Growing Degree Days 7 (Base 50)    
Moisture  
Dew Point 49 °F    
Average Humidity 77    
Maximum Humidity 96    
Minimum Humidity 53    
Precipitation  
Precipitation 0.00 in 0.10 in 1.02 in (1999)
Month to date precipitation 1.48  
Year to date precipitation 24.46  
Snow  
Snow 0.00 in 0.00 in - ()
Month to date snowfall 0.0  
Since 1 June snowfall 0.0  
Since 1 July snowfall 0.0  
Snow Depth -    
Sea Level Pressure  
Sea Level Pressure 29.97 in    
Wind  
Wind Speed 4 mph (WNW)    
Max Wind Speed 17 mph    
Max Gust Speed 26 mph    
Visibility 10 miles    
Events      
T = Trace of Precipitation, MM = Missing Value Source: NWS Daily Summary

Daily Weather History Graph

Daily Weather History Graph

Search for Another Location

Airport:

Trip Planner

Search our weather history database for the weather conditions in past years. The results will help you decide how hot, cold, wet, or windy it might be!

Date:

Astronomy

Aug. 14, 2014 Rise Set
Actual Time 6:30 AM EDT 8:24 PM EDT
Civil Twilight 5:59 AM EDT 8:54 PM EDT
Nautical Twilight 5:23 AM EDT 9:30 PM EDT
Astronomical Twilight 4:43 AM EDT 10:10 PM EDT
Moon 10:41 PM EDT (8/14) 11:09 AM EDT (8/14)
Length of Visible Light 14h 54m
Length of Day
13h 54m
Waning Gibbous, 79% of the Moon is Illuminated
Aug 14
Waning Gibbous
Aug 17
Last Quarter
Aug 25
New
Sep 2
First Quarter
Sep 8
Full

Hourly Weather History & Observations

Time (EDT) Temp. Dew Point Humidity Pressure Visibility Wind Dir Wind Speed Gust Speed Precip Events Conditions
12:53 AM 51.1 °F 48.9 °F 92% 29.96 in 10.0 mi Calm Calm - N/A   Scattered Clouds
1:53 AM 52.0 °F 50.0 °F 93% 29.96 in 10.0 mi Calm Calm - N/A   Partly Cloudy
2:53 AM 52.0 °F 50.0 °F 93% 29.95 in 10.0 mi Calm Calm - N/A   Overcast
3:53 AM 53.1 °F 51.1 °F 93% 29.94 in 10.0 mi Calm Calm - N/A   Mostly Cloudy
4:53 AM 52.0 °F 50.0 °F 93% 29.92 in 10.0 mi Calm Calm - N/A   Scattered Clouds
5:53 AM 50.0 °F 48.9 °F 96% 29.93 in 10.0 mi South 3.5 mph - N/A   Clear
6:53 AM 50.0 °F 48.0 °F 93% 29.94 in 10.0 mi ENE 3.5 mph - N/A   Partly Cloudy
7:28 AM 52.0 °F 50.0 °F 93% 29.95 in 10.0 mi Calm Calm - N/A   Mostly Cloudy
7:53 AM 53.1 °F 52.0 °F 96% 29.96 in 10.0 mi Calm Calm - N/A   Mostly Cloudy
8:53 AM 61.0 °F 55.0 °F 81% 29.97 in 10.0 mi NW 8.1 mph - N/A   Partly Cloudy
9:53 AM 61.0 °F 51.1 °F 70% 29.98 in 10.0 mi NW 16.1 mph - N/A   Mostly Cloudy
10:53 AM 62.1 °F 50.0 °F 65% 29.99 in 10.0 mi NW 15.0 mph 20.7 mph N/A   Scattered Clouds
11:53 AM 62.1 °F 48.0 °F 60% 29.99 in 10.0 mi NW 12.7 mph 20.7 mph N/A   Mostly Cloudy
12:53 PM 62.1 °F 48.0 °F 60% 29.99 in 10.0 mi NW 17.3 mph 26.5 mph N/A   Scattered Clouds
1:53 PM 63.0 °F 48.9 °F 60% 29.99 in 10.0 mi WNW 11.5 mph 20.7 mph N/A   Mostly Cloudy
2:53 PM 62.1 °F 48.0 °F 60% 29.98 in 10.0 mi WNW 12.7 mph 19.6 mph N/A   Partly Cloudy
3:53 PM 64.0 °F 46.9 °F 54% 29.98 in 10.0 mi West 10.4 mph - N/A   Scattered Clouds
4:53 PM 62.1 °F 45.0 °F 53% 29.99 in 10.0 mi WNW 11.5 mph 18.4 mph N/A   Overcast
5:53 PM 62.1 °F 46.0 °F 56% 29.99 in 10.0 mi WNW 6.9 mph - N/A   Overcast
6:53 PM 61.0 °F 46.0 °F 58% 29.99 in 10.0 mi West 6.9 mph - N/A   Mostly Cloudy
7:53 PM 60.1 °F 46.0 °F 60% 29.98 in 10.0 mi WNW 4.6 mph - N/A   Scattered Clouds
8:53 PM 54.0 °F 48.9 °F 83% 29.99 in 10.0 mi Calm Calm - N/A   Clear
9:53 PM 53.1 °F 48.9 °F 86% 29.99 in 10.0 mi Calm Calm - N/A   Partly Cloudy
10:53 PM 53.1 °F 48.0 °F 83% 29.99 in 10.0 mi Calm Calm - N/A   Partly Cloudy
11:53 PM 52.0 °F 48.0 °F 86% 29.99 in 10.0 mi Calm Calm - N/A   Scattered Clouds